{"data":{"norad_id":55572,"intl_designator":"2023-020D","name":"STARLINK-5732","alt_names":[],"object_type":"PAYLOAD","status":"ACTIVE","operator":null,"country":"US","launch_date":"2023-02-12","launch_site_code":"AFETR","launch_vehicle":null,"mission":null,"orbit_class":"UNKNOWN","rcs_meters":null,"size_class":null,"mass_kg":null,"dimensions":null,"purposes":["comms"],"wikipedia_slug":null,"has_3d_model":false,"image_url":null,"decayed_at":null,"tle_current":{"epoch":"2026-05-25T03:05:03.503328Z","epoch_age_seconds":64759,"freshness":"FRESH","line1":"1 55572U 23020D   26145.12851277  .00000015  00000+0  10074-4 0  9993","line2":"2 55572  43.0011 296.8876 0001072 273.0152  87.0577 15.27575249180562","mean_motion":15.27575249,"eccentricity":0.0001072,"inclination_deg":43.0011,"raan_deg":296.8876,"arg_perigee_deg":273.0152,"mean_anomaly_deg":87.0577,"bstar":1.0074e-5,"rev_number":18056,"period_min":94.267041898111,"perigee_km":482.32780160514,"apogee_km":483.79884295424,"semimajor_km":6861.2003222797,"source":"CELESTRAK","updated_at":"2026-05-25T13:38:17.834649Z"}}}